Satellite: PO-28
Catalog number: 22829
Epoch time:      08044.92021087
Element set:    0875
Inclination:      098.3506 deg
RA of node:       011.8011 deg
Eccentricity:    0.0008924
Arg of perigee:   235.1889 deg
Mean anomaly:     124.8458 deg
Mean motion:   14.30180296 rev/day
Decay rate:        7.8e-07 rev/day^2
Epoch rev:           75036
Checksum:              313

Satellite: GO-32
Catalog number: 25397
Epoch time:      08044.66681363
Element set:    0526
Inclination:      098.3815 deg
RA of node:       085.8809 deg
Eccentricity:    0.0000507
Arg of perigee:   205.4685 deg
Mean anomaly:     154.6490 deg
Mean motion:   14.23137863 rev/day
Decay rate:      -1.16e-06 rev/day^2
Epoch rev:           49850
Checksum:              325

Satellite: MO-46
Catalog number: 26548
Epoch time:      08045.71533033
Element set:      23
Inclination:      064.5574 deg
RA of node:       152.3240 deg
Eccentricity:    0.0015124
Arg of perigee:   340.6692 deg
Mean anomaly:     019.3825 deg
Mean motion:   14.83227423 rev/day
Decay rate:       1.21e-06 rev/day^2
Epoch rev:           39950
Checksum:              277

Satellite: NO-44
Catalog number: 26931
Epoch time:      08044.81892356
Element set:    0806
Inclination:      067.0509 deg
RA of node:       245.0429 deg
Eccentricity:    0.0004639
Arg of perigee:   270.2935 deg
Mean anomaly:     089.7583 deg
Mean motion:   14.29511739 rev/day
Decay rate:      -1.19e-06 rev/day^2
Epoch rev:           33263
Checksum:              325

Satellite: SO-50
Catalog number: 27607
Epoch time:      08044.55593860
Element set:    0529
Inclination:      064.5579 deg
RA of node:       072.1304 deg
Eccentricity:    0.0079994
Arg of perigee:   304.3113 deg
Mean anomaly:     055.0437 deg
Mean motion:   14.71326823 rev/day
Decay rate:       1.07e-06 rev/day^2
Epoch rev:           27663
Checksum:              309

Satellite: CO-55
Catalog number: 27844
Epoch time:      08044.69841038
Element set:     235
Inclination:      098.7186 deg
RA of node:       054.6801 deg
Eccentricity:    0.0010572
Arg of perigee:   112.8870 deg
Mean anomaly:     247.3421 deg
Mean motion:   14.20559845 rev/day
Decay rate:        3.0e-07 rev/day^2
Epoch rev:           23976
Checksum:              312

Satellite: CO-57
Catalog number: 27848
Epoch time:      08045.52519658
Element set:     190
Inclination:      098.7184 deg
RA of node:       054.6180 deg
Eccentricity:    0.0010518
Arg of perigee:   115.0728 deg
Mean anomaly:     245.1524 deg
Mean motion:   14.20372177 rev/day
Decay rate:        1.3e-07 rev/day^2
Epoch rev:           23985
Checksum:              308

Satellite: AO-51
Catalog number: 28375
Epoch time:      08044.93097368
Element set:    0031
Inclination:      098.0849 deg
RA of node:       076.4107 deg
Eccentricity:    0.0083537
Arg of perigee:   169.1578 deg
Mean anomaly:     191.1439 deg
Mean motion:   14.40596473 rev/day
Decay rate:        2.0e-08 rev/day^2
Epoch rev:           19051
Checksum:              323

Satellite: CO-56
Catalog number: 28941
Epoch time:      08045.73916275
Element set:     847
Inclination:      098.1022 deg
RA of node:       140.2966 deg
Eccentricity:    0.0189554
Arg of perigee:   127.6684 deg
Mean anomaly:     234.1900 deg
Mean motion:   15.50300123 rev/day
Decay rate:     3.1676e-04 rev/day^2
Epoch rev:           11087
Checksum:              314

Satellite: NO-61
Catalog number: 29664
Epoch time:      07359.16654419
Element set:     738
Inclination:      051.6179 deg
RA of node:       150.0690 deg
Eccentricity:    0.0003189
Arg of perigee:   248.8461 deg
Mean anomaly:     111.8136 deg
Mean motion:   16.51627846 rev/day
Decay rate:  1.4620719e-01 rev/day^2
Epoch rev:            5877
Checksum:              345

Satellite: CP4
Catalog number: 31122
Epoch time:      08044.69905700
Element set:    0262
Inclination:      098.0552 deg
RA of node:       114.8347 deg
Eccentricity:    0.0085727
Arg of perigee:   356.4010 deg
Mean anomaly:     003.6548 deg
Mean motion:   14.55086994 rev/day
Decay rate:       5.50e-06 rev/day^2
Epoch rev:           04397
Checksum:              299

Satellite: CP3
Catalog number: 31128
Epoch time:      08044.66905569
Element set:    0257
Inclination:      098.0526 deg
RA of node:       113.2908 deg
Eccentricity:    0.0103003
Arg of perigee:   000.5336 deg
Mean anomaly:     359.6098 deg
Mean motion:   14.51913171 rev/day
Decay rate:       -4.8e-07 rev/day^2
Epoch rev:           04386
Checksum:              289

Satellite: LIBERT
Catalog number: 31129
Epoch time:      08045.82221204
Element set:     751
Inclination:      098.0546 deg
RA of node:       114.4264 deg
Eccentricity:    0.0102328
Arg of perigee:   356.8409 deg
Mean anomaly:     003.2122 deg
Mean motion:   14.52003615 rev/day
Decay rate:       3.37e-06 rev/day^2
Epoch rev:            4401
Checksum:              240

/EX
SB KEPS @ AMSAT  $ORB08045.W
Orbital Elements  08045.WEATHER

HR AMSAT ORBITAL ELEMENTS FOR WEATHER SATELLITES
FROM WA5QGD FORT WORTH,TX February 14, 2008
Send Subscribe/unsubscribe to KEPS at 
http://www.amsat.org/mailman/listinfo/keps
BID: ORB08045.W
TO ALL RADIO AMATEURS BT

